[Iaude] MPEC A76: 2019 AE3 [a=1.00,e=0.10,i=14.8,H=27.2]

mpec at mpcdb1.cfa.harvard.edu mpec at mpcdb1.cfa.harvard.edu
Sat Jan 5 21:53:17 EST 2019


M.P.E.C. 2019-A76                                Issued 2019 Jan. 6, 02:48 UT
 
     The Minor Planet Electronic Circulars contain information on unusual
         minor planets and routine data on comets.  They are published
    on behalf of Division F of the International Astronomical Union by the
          Minor Planet Center, Smithsonian Astrophysical Observatory,
                          Cambridge, MA 02138, U.S.A.

             Prepared using the Tamkin Foundation Computer Network

                              MPC at CFA.HARVARD.EDU
            URL https://www.minorplanetcenter.net/    ISSN 1523-6714


                                   2019 AE3
 
Observations:
     K19A03E* C2019 01 04.09223 01 46 49.88 +43 56 03.5          18.9 GVEA076703
     K19A03E  C2019 01 04.09792 01 46 44.71 +44 04 24.8          18.2 GVEA076703
     K19A03E  C2019 01 04.10338 01 46 40.18 +44 12 15.5          17.8 GVEA076703
     K19A03E  C2019 01 04.10876 01 46 35.21 +44 20 09.8          18.3 GVEA076703
     K19A03E  C2019 01 04.14823 01 46 00.82 +45 15 51.2          18.9 GVEA076703
     K19A03E  C2019 01 04.14846 01 46 00.65 +45 16 10.4          18.4 GVEA076703
     K19A03E  C2019 01 04.14869 01 46 00.44 +45 16 29.4          18.3 GVEA076703
     K19A03E  C2019 01 04.14893 01 46 00.22 +45 16 48.8          18.3 GVEA076703
     K19A03E  C2019 01 04.28333 01 44 25.50 +48 07 17.2                VEA076703
     K19A03E  C2019 01 04.28368 01 44 25.40 +48 07 41.3                VEA076703
     K19A03E SC2019 01 04.80438801 43 03.56 +56 45 49.4          19.3 GVEA076J95
     K19A03E IC2019 01 04.80985401 42 59.83 +56 50 06.5                VEA076J95
     K19A03E  C2019 01 05.06749 01 42 07.11 +59 57 29.7          19.1 GVEA076I52
     K19A03E  C2019 01 05.06794 01 42 06.74 +59 57 47.5                VEA076I52
     K19A03E  C2019 01 05.06840 01 42 06.45 +59 58 05.6          20.8 GVEA076I52
     K19A03E KC2019 01 05.07145601 41 32.44 +59 58 22.4          19.1 VuEA076H21
     K19A03E KC2019 01 05.07437801 41 30.28 +60 00 12.0          19.7 VuEA076H21
     K19A03E KC2019 01 05.07852401 41 27.12 +60 02 46.3          19.2 VuEA076H21
     K19A03E IC2019 01 05.71471301 39 13.86 +65 28 52.7          21.0 GVEA076L01
     K19A03E IC2019 01 05.71710901 39 12.37 +65 29 53.2          21.1 GVEA076L01
     K19A03E IC2019 01 05.71878701 39 11.22 +65 30 35.5          20.9 GVEA076L01
     K19A03E KC2019 01 05.74256 01 38 55.11 +65 40 14.3          20.4 GVEA076595
     K19A03E KC2019 01 05.74910 01 38 50.65 +65 42 54.0                VEA076595
 
Observer details:
595 Farra dIsonzo.  Observers U. Montanar, E. Pettarin, F. Piani.  Measurer
    E. Pettarin.  0.61-m f/4.5 reflector + CCD.
703 Catalina Sky Survey.  Observer H. Groeller.  Measurers B. M. Africano,
    E. J. Christensen, G. A. Farneth, D. C. Fuls, A. R. Gibbs, A. D. Grauer,
    H. Groeller, R. A. Kowalski, S. M. Larson, G. J. Leonard, R. L. Seaman,
    F. C. Shelly.  0.68-m Schmidt + 10K CCD.
H21 Astronomical Research Observatory, Westfield.  Observer R. Holmes.
    Measurers S. Foglia, L. Buzzi, T. Linder, R. Holmes.  0.61-m f/4.5
    astrograph + CCD.
I52 Steward Observatory, Mt. Lemmon Station.  Observer H. Groeller.
    Measurers B. M. Africano, E. J. Christensen, G. A. Farneth, D. C. Fuls,
    A. R. Gibbs, A. D. Grauer, H. Groeller, R. A. Kowalski, S. M. Larson,
    G. J. Leonard, R. L. Seaman, F. C. Shelly.  1.0-m reflector + CCD.
J95 Great Shefford.  Observer P. Birtwhistle.  0.41-m f/6.3
    Schmidt-Cassegrain + CCD.
L01 Visnjan Observatory, Tican.  Observer K. Korlevic.  1.0-m f/2.9 reflector
    + CCD.
 
Orbital elements:
2019 AE3                                                 Earth MOID = 0.0019 AU
Epoch 2019 Apr. 27.0 TT = JDT 2458600.5                 MPC
M 189.25692              (2000.0)            P               Q
n   0.98834777     Peri.  271.76528     +0.93902649     -0.23589967
a   0.9981509      Node   101.93846     +0.31270697     +0.88842592
e   0.1004380      Incl.   14.81457     -0.14298114     +0.39376481
P   1.00           H   27.2           G   0.15           U   6
Residuals in seconds of arc
190104 703 (0.7+  2.9+)   190104 703  0.4-  0.5+    190105 H21  0.2+  0.2+
190104 703 (0.6-  2.0+)   190104 703  0.3+  0.0     190105 H21  0.4-  0.2-
190104 703 (2.8+  5.9-)   190104 J95  0.4-  0.3-    190105 L01  0.1-  0.3-
190104 703  0.6+  0.0     190104 J95  0.1-  0.2+    190105 L01  0.8+  0.1+
190104 703  0.1+  0.1-    190105 I52  0.1-  0.2-    190105 L01  0.8+  0.3+
190104 703  0.4+  0.1+    190105 I52  0.2-  0.1+    190105 595  0.1+  0.7-
190104 703  0.2+  0.1+    190105 I52  0.5+  0.3+    190105 595  0.0   0.7+
190104 703  0.0   0.3-    190105 H21  0.0   0.1+

Ephemeris:
2019 AE3                 a,e,i = 1.00, 0.10, 15                  q = 0.8979
Date    TT    R. A. (2000) Decl.     Delta      r     Elong.  Phase     V
2018 12 07    14 12 07.8 -86 51 33   0.1278  0.9386    65.1   107.8    26.6
...
2018 12 22    05 45 48.2 -88 28 07   0.05788 0.9636    68.1   108.7    25.0
...
2018 12 30    02 26 33.3 -78 45 15   0.01977 0.9775    72.4   106.5    22.6
...
2019 01 05    01 42 14.6 +59 06 44   0.01137 0.9881   114.6    64.8    19.7
2019 01 06    01 37 52.7 +67 13 13   0.01585 0.9898   113.8    65.3    20.5
2019 01 07    01 34 09.8 +71 42 10   0.02050 0.9916   113.2    65.7    21.1
...
2019 01 13    01 23 42.4 +80 24 09   0.04914 1.0020   110.8    66.6    23.0
...
2019 01 21    01 35 18.1 +83 14 04   0.08720 1.0156   108.9    66.4    24.3
...
2019 02 05    03 07 58.7 +84 54 18   0.1557  1.0396   106.0    65.7    25.6

A. U. Tomatic                (C) Copyright 2019 MPC           M.P.E.C. 2019-A76



More information about the Iaude mailing list